WEATHER DATA

TODAY
Time Temp. Dewp. Hum. Bar. 1h Prec. 24h Prec.
00:00 2.8 0.2 83 1027.5 0.0000 0.0000
00:09 2.7 0.3 84 1027.5 0.0000 0.0000
00:20 2.6 0.2 84 1027.4 0.0000 0.0000
00:30 2.5 0.1 84 1027.4 0.0000 0.0000
00:40 2.4 0 84 1027.4 0.0000 0.0000
00:50 2.4 0 84 1027.4 0.0000 0.0000
01:00 2.3 0 85 1027.4 0.0000 0.0000
01:10 2.2 0 85 1027.6 0.0000 0.0000
01:20 2.2 0 85 1027.5 0.0000 0.0000
01:31 2.2 0 85 1027.5 0.0000 0.0000
01:41 2 -0.2 85 1027.4 0.0000 0.0000
01:51 1.8 -0.4 85 1027.4 0.0000 0.0000
02:00 1.6 -0.6 85 1027.4 0.0000 0.0000
02:11 1.4 -0.7 85 1027.5 0.0000 0.0000
02:21 1.3 -0.7 86 1027.4 0.0000 0.0000
02:31 1.2 -0.8 86 1027.4 0.0000 0.0000
02:42 1.2 -0.8 86 1027.4 0.0000 0.0000
02:51 1.1 -0.7 87 1027.4 0.0000 0.0000
03:01 1.2 -0.6 87 1027.3 0.0000 0.0000
03:11 1.2 -0.6 87 1027.3 0.0000 0.0000
03:22 1.2 -0.6 87 1027.3 0.0000 0.0000
03:32 1.2 -0.6 87 1027.2 0.0000 0.0000
03:41 1.1 -0.7 87 1027.2 0.0000 0.0000
03:52 1.1 -0.7 87 1027.2 0.0000 0.0000
04:02 1.1 -0.7 87 1027.2 0.0000 0.0000
04:12 1.1 -0.7 87 1027.3 0.0000 0.0000
04:22 1.1 -0.6 88 1027.3 0.0000 0.0000
04:33 1.2 -0.5 88 1027.3 0.0000 0.0000
04:42 1.2 -0.5 88 1027.2 0.0000 0.0000
04:52 1.2 -0.5 88 1027.2 0.0000 0.0000
05:03 1.3 -0.4 88 1027.2 0.0000 0.0000
05:13 1.3 -0.4 88 1027.2 0.0000 0.0000
05:23 1.4 -0.3 88 1027.2 0.0000 0.0000
05:32 1.4 -0.3 88 1027.2 0.0000 0.0000
05:43 1.4 -0.3 88 1027.2 0.0000 0.0000
05:53 1.5 -0.2 88 1027.2 0.0000 0.0000
06:03 1.5 -0.2 88 1027.3 0.0000 0.0000
06:13 1.5 -0.2 88 1027.3 0.0000 0.0000
06:23 1.6 -0.1 88 1027.3 0.0000 0.0000
06:33 1.6 -0.1 88 1027.3 0.0000 0.0000
06:43 1.6 -0.1 88 1027.3 0.0000 0.0000
06:54 1.6 -0.1 88 1027.4 0.0000 0.0000
07:04 1.7 -0.1 88 1027.4 0.0000 0.0000
07:13 1.8 0 88 1027.4 0.0000 0.0000
07:23 1.8 0 88 1027.4 0.0000 0.0000
07:34 1.9 0.1 88 1027.4 0.0000 0.0000
07:44 2 0.2 88 1027.5 0.0000 0.0000
07:54 2.2 0.4 88 1027.4 0.0000 0.0000
08:05 2.2 0.4 88 1027.5 0.0000 0.0000
08:14 2.3 0.5 88 1027.5 0.0000 0.0000
08:24 2.4 0.6 88 1027.6 0.0000 0.0000
08:34 2.6 0.8 88 1027.7 0.0000 0.0000
08:45 2.7 0.9 88 1027.7 0.0000 0.0000
08:55 2.8 0.9 87 1027.7 0.0000 0.0000
09:04 2.9 1 87 1027.7 0.0000 0.0000
09:15 3 1.1 87 1027.8 0.0000 0.0000
09:25 3.1 1.1 87 1027.8 0.0000 0.0000
09:35 3.2 1.2 87 1027.7 0.0000 0.0000
09:45 3.3 1.3 87 1027.8 0.0000 0.0000
09:55 3.4 1.4 87 1027.8 0.0000 0.0000
10:05 3.5 1.4 86 1027.8 0.0000 0.0000
10:15 3.6 1.5 86 1027.9 0.0000 0.0000
10:26 3.7 1.6 86 1027.8 0.0000 0.0000
10:36 3.9 1.8 86 1027.8 0.0000 0.0000
10:45 4.1 2 86 1027.9 0.0000 0.0000
10:55 4.3 2.2 86 1027.9 0.0000 0.0000
11:06 4.6 2.5 86 1027.9 0.0000 0.0000
11:16 5 2.7 85 1027.9 0.0000 0.0000
11:26 5.3 3 85 1027.8 0.0000 0.0000
11:36 5.7 3.2 84 1027.8 0.0000 0.0000
11:46 6.1 3.3 82 1027.7 0.0000 0.0000
11:56 6.4 3.4 81 1027.7 0.0000 0.0000
12:06 6.6 3.4 80 1027.6 0.0000 0.0000
12:17 6.8 2.5 74 1027.5 0.0000 0.0000
12:27 7.3 2.8 73 1027.5 0.0000 0.0000
12:36 7.3 2.6 72 1027.5 0.0000 0.0000
12:46 7.4 2.5 71 1027.6 0.0000 0.0000
12:57 7.3 2.2 70 1027.6 0.0000 0.0000
13:07 7.3 2.4 71 1027.6 0.0000 0.0000
13:17 7.3 2.4 71 1027.6 0.0000 0.0000
13:27 7.4 2.5 71 1027.5 0.0000 0.0000
13:37 7.6 2.7 71 1027.4 0.0000 0.0000
13:47 7.6 2.5 70 1027.4 0.0000 0.0000
13:57 7.5 2.6 71 1027.3 0.0000 0.0000
14:08 7.4 2.7 72 1027.3 0.0000 0.0000
14:17 7.3 2.8 73 1027.2 0.0000 0.0000
14:27 7.4 2.9 73 1027.1 0.0000 0.0000
14:38 7.6 3.1 73 1027.1 0.0000 0.0000
14:48 7.8 3.3 73 1027.2 0.0000 0.0000
14:58 7.7 3.4 74 1027.2 0.0000 0.0000
15:07 7.7 3.2 73 1027.1 0.0000 0.0000
15:18 7.6 3.3 74 1027.1 0.0000 0.0000
15:28 7.5 3.4 75 1027.1 0.0000 0.0000
15:38 7.3 3.4 76 1027.1 0.0000 0.0000
15:49 7.1 3.3 77 1027 0.1010 0.1000
15:59 6.9 3.2 77 1027 0.1010 0.1000
16:08 6.9 3.3 78 1026.9 0.1010 0.1000
16:18 6.9 3.5 79 1026.8 0.1010 0.1000
16:29 6.9 3.5 79 1026.8 0.1010 0.1000
16:39 6.7 3.3 79 1026.8 0.0000 0.1000
16:49 6.7 3.1 78 1026.7 0.0000 0.1000
16:59 6.8 3.4 79 1026.7 0.0000 0.1000
17:09 6.9 3.5 79 1026.8 0.0000 0.1000
17:19 6.7 3.1 78 1026.7 0.0000 0.1000
17:29 6.5 2.9 78 1026.7 0.0000 0.1000
17:40 6.4 3 79 1026.7 0.0000 0.1000
17:49 6.3 2.9 79 1026.7 0.0000 0.1000
17:59 6.2 3 80 1026.8 0.0000 0.1000
18:09 6 3 81 1026.8 0.0000 0.1000
18:20 5.8 3 82 1026.8 0.0000 0.1000
18:30 5.6 2.9 83 1026.8 0.0000 0.1000
18:39 5.5 2.8 83 1026.8 0.0000 0.1000
18:50 5.4 2.9 84 1026.8 0.0000 0.1000
19:00 5.3 2.8 84 1026.9 0.0000 0.1000
19:10 5.2 2.7 84 1026.9 0.0000 0.1000
19:20 5.1 2.6 84 1026.9 0.0000 0.1000
19:31 5 2.5 84 1026.9 0.0000 0.1000
19:40 5 2.5 84 1027 0.0000 0.1000
19:50 4.9 2.4 84 1027 0.0000 0.1000
20:01 4.8 2.3 84 1027 0.0000 0.1000
20:11 4.8 2.3 84 1027 0.0000 0.1000
20:21 4.8 2.3 84 1027 0.0000 0.1000
20:30 4.7 2.4 85 1027.1 0.0000 0.1000
20:41 4.7 2.4 85 1027.2 0.0000 0.1000
20:51 4.6 2.3 85 1027.2 0.0000 0.1000
21:01 4.6 2.3 85 1027.1 0.0000 0.1000
21:12 4.6 2.3 85 1027.2 0.0000 0.1000
21:21 4.6 2.3 85 1027.2 0.0000 0.1000
21:31 4.5 2.2 85 1027.3 0.0000 0.1000
21:41 4.5 2.2 85 1027.3 0.0000 0.1000
21:52 4.5 2.2 85 1027.4 0.0000 0.1000

DAY STATISTIC

2021-09-18
TEMPERATURE
AVERAGE
4.1
HIGH
7.8
14:48
LOW
1.1
02:51
PRESSURE
AVERAGE
1027.3
HIGH
1027.9
10:15
LOW
1026.7
16:49
DEWPOINT
AVERAGE
1.5
HIGH
3.5
16:18
LOW
-0.8
02:31
HUMIDITY
AVERAGE
83
HIGH
88
04:22
LOW
70
12:57
PRECIPITATION
RAIN HOUR
0.1
RAIN DAY
0.1
TEMPERATURE (°C)
LOW
1.1
HIGH
7.8
AVERAGE
4.1
PRESSURE (hpa)
LOW
1026.7
HIGH
1027.9
AVERAGE
1027.3
DEVICE